N5MDT Weather Reports


time (UTC)temp
C
wind
direction
speed
KPH
gust
KPH
rain 1hr
cm
rain 24hr
cm
rain mn
cm
humidity
%
barometer
mb
20260503231828 30 194 3.2 9.7 0.00 0.00 0.00 38 1018.6
20260503230828 30 145 3.2 9.7 0.00 0.00 0.00 39 1018.7
20260503225828 30 130 4.8 8.0 0.00 0.00 0.00 37 1018.7
20260503224828 31 133 1.6 4.8 0.00 0.00 0.00 38 1018.8
20260503223828 30 113 4.8 6.4 0.00 0.00 0.00 39 1018.9
20260503222828 30 101 0.0 9.7 0.00 0.00 0.00 42 1019.0
20260503221827 30 203 1.6 11.3 0.00 0.00 0.00 43 1019.2
20260503220827 29 125 3.2 6.4 0.00 0.00 0.00 42 1019.4
20260503215828 30 97 4.8 9.7 0.00 0.00 0.00 40 1019.4
20260503214827 30 92 6.4 9.7 0.00 0.00 0.00 39 1019.4
20260503213827 30 97 4.8 8.0 0.00 0.00 0.00 40 1019.5
20260503212827 31 111 6.4 9.7 0.00 0.00 0.00 40 1019.8
20260503211827 30 150 4.8 8.0 0.00 0.00 0.00 40 1019.9
20260503210827 30 163 0.0 9.7 0.00 0.00 0.00 43 1020.0
20260503205827 29 140 1.6 6.4 0.00 0.00 0.00 43 1020.0
20260503204827 28 162 0.0 3.2 0.00 0.00 0.00 43 1020.2
20260503203827 29 162 0.0 1.6 0.00 0.00 0.00 43 1020.5
20260503202827 29 162 1.6 6.4 0.00 0.00 0.00 43 1020.7
20260503201827 29 204 0.0 3.2 0.00 0.00 0.00 43 1020.7
20260503200827 29 153 1.6 3.2 0.00 0.00 0.00 45 1021.0
20260503195827 28 210 0.0 6.4 0.00 0.00 0.00 45 1021.1
20260503194827 28 121 1.6 4.8 0.00 0.00 0.00 50 1021.3
20260503193826 27 259 1.6 6.4 0.00 0.00 0.00 50 1021.5
20260503192826 27 175 1.6 4.8 0.00 0.00 0.00 48 1021.7
20260503191826 26 248 0.0 4.8 0.00 0.00 0.00 48 1021.8
20260503190826 26 179 0.0 9.7 0.00 0.00 0.00 51 1022.0
20260503185826 26 193 0.0 8.0 0.00 0.00 0.00 51 1022.0
20260503184826 26 146 0.0 4.8 0.00 0.00 0.00 51 1022.1
20260503183826 25 109 0.0 6.4 0.00 0.00 0.00 51 1022.2
20260503182826 25 71 0.0 6.4 0.00 0.00 0.00 54 1022.4
20260503181826 25 128 0.0 9.7 0.00 0.00 0.00 52 1022.6
20260503180825 25 87 1.6 8.0 0.00 0.00 0.00 57 1022.7
20260503175825 24 76 0.0 12.9 0.00 0.00 0.00 57 1022.9
20260503174825 24 204 0.0 8.0 0.00 0.00 0.00 58 1023.2
20260503173826 23 166 1.6 4.8 0.00 0.00 0.00 59 1023.4
20260503172825 23 196 0.0 9.7 0.00 0.00 0.00 57 1023.5
20260503171825 23 198 0.0 4.8 0.00 0.00 0.00 59 1023.5
20260503170825 23 121 0.0 4.8 0.00 0.00 0.00 58 1023.6
20260503150824 18 155 1.6 8.0 0.00 0.00 0.00 75 1023.6
20260503130823 14 77 0.0 0.0 0.00 0.00 0.00 85 1022.9
20260503110822 13 300 0.0 0.0 0.00 0.00 0.00 84 1022.0
20260503080821 15 300 0.0 0.0 0.00 0.00 0.00 81 1021.7
20260503072821 16 300 0.0 0.0 0.00 0.00 0.00 81 1021.9
20260503071821 16 300 0.0 0.0 0.00 0.00 0.00 80 1022.0
20260503070820 16 300 0.0 0.0 0.00 0.00 0.00 80 1022.0
20260503054820 17 300 0.0 0.0 0.00 0.00 0.00 78 1022.2
20260503053850 17 300 0.0 0.0 0.00 0.00 0.00 77 1022.1
20260503052820 17 300 0.0 0.0 0.00 0.00 0.00 77 1021.9
20260503051820 17 300 0.0 0.0 0.00 0.00 0.00 77 1021.8
20260503050820 17 300 0.0 0.0 0.00 0.00 0.00 77 1022.0
20260503045820 17 300 0.0 0.0 0.00 0.00 0.00 76 1022.0
20260503044820 18 300 0.0 0.0 0.00 0.00 0.00 76 1021.9
20260503043850 18 300 0.0 0.0 0.00 0.00 0.00 75 1022.0
20260503042822 18 300 0.0 0.0 0.00 0.00 0.00 75 1021.8
20260503041822 18 300 0.0 0.0 0.00 0.00 0.00 74 1021.7
20260503040823 18 300 0.0 0.0 0.00 0.00 0.00 73 1021.8
20260503035822 18 300 0.0 0.0 0.00 0.00 0.00 73 1021.7
20260503034822 18 300 0.0 0.0 0.00 0.00 0.00 72 1021.7
20260503033822 19 300 0.0 0.0 0.00 0.00 0.00 72 1021.6
20260503032822 19 300 0.0 0.0 0.00 0.00 0.00 70 1021.4
20260503031822 20 300 0.0 0.0 0.00 0.00 0.00 70 1021.3
20260503030822 20 300 0.0 0.0 0.00 0.00 0.00 70 1021.1
20260503025821 20 300 0.0 0.0 0.00 0.00 0.00 69 1021.2
20260503024822 20 300 0.0 0.0 0.00 0.00 0.00 67 1021.2
20260503023851 21 300 0.0 0.0 0.00 0.00 0.00 66 1021.1
20260503022821 21 300 0.0 0.0 0.00 0.00 0.00 65 1020.8
20260503021821 21 300 0.0 0.0 0.00 0.00 0.00 64 1020.7
20260503020821 21 300 0.0 0.0 0.00 0.00 0.00 63 1020.7
20260503015821 22 300 0.0 0.0 0.00 0.00 0.00 62 1020.5
20260503014821 22 300 0.0 0.0 0.00 0.00 0.00 62 1020.4
20260503013821 22 300 0.0 0.0 0.00 0.00 0.00 60 1020.2
20260503012821 23 300 0.0 0.0 0.00 0.00 0.00 60 1020.3
20260503011821 23 300 0.0 0.0 0.00 0.00 0.00 58 1020.2
20260503010821 24 300 0.0 0.0 0.00 0.00 0.00 56 1020.1
20260503005820 25 300 0.0 0.0 0.00 0.00 0.00 53 1020.1
20260503004820 25 300 0.0 0.0 0.00 0.00 0.00 51 1020.0
20260503003850 26 300 0.0 0.0 0.00 0.00 0.00 51 1020.0
20260503002820 26 300 0.0 0.0 0.00 0.00 0.00 49 1019.8
20260503001820 27 300 0.0 0.0 0.00 0.00 0.00 47 1019.8
20260503000820 27 300 0.0 4.8 0.00 0.00 0.00 45 1019.7
20260502235820 28 301 1.6 8.0 0.00 0.00 0.00 46 1019.5
20260502234820 28 308 0.0 4.8 0.00 0.00 0.00 45 1019.5
20260502233820 28 315 1.6 4.8 0.00 0.00 0.00 45 1019.5
20260502232850 28 325 4.8 6.4 0.00 0.00 0.00 43 1019.5